Ely, MN

9:47 PM CST on December 12, 2017 (GMT -0600)
Ely Municipal

Weather History for KELO - January, 2013

Change the Weather History Date:

Tuesday, January 8, 2013

  Actual Average Record
Temperature  
Mean Temperature 22 °F -  
Max Temperature 33 °F 15 °F 46 °F (2003)
Min Temperature 12 °F 0 °F -29 °F (2014)
Degree Days  
Heating Degree Days 42    
Moisture  
Dew Point 21 °F    
Average Humidity 82    
Maximum Humidity 100    
Minimum Humidity 60    
Precipitation  
Precipitation 0.01 in - - ()
Sea Level Pressure  
Sea Level Pressure 29.77 in    
Wind  
Wind Speed 5 mph (South)    
Max Wind Speed 12 mph    
Max Gust Speed 18 mph    
Visibility 9 miles    
Events Snow    
Averages and records for this station are not official NWS values.
T = Trace of Precipitation, MM = Missing Value Source: NWS Daily Summary

Daily Weather History Graph

Daily Weather History Graph

Search for Another Location

Airport or City:

Trip Planner

Search our weather history database for the weather conditions in past years. The results will help you decide how hot, cold, wet, or windy it might be!

Date:

Astronomy

Jan. 08, 2013 Rise Set
Actual Time 7:55 AM CST 4:33 PM CST
Civil Twilight 7:19 AM CST 5:09 PM CST
Nautical Twilight 6:40 AM CST 5:48 PM CST
Astronomical Twilight 6:03 AM CST 6:25 PM CST
Moon 4:27 AM CST (1/8) 1:36 PM CST (1/8)
Length of Visible Light 9h 49m
Length of Day
8h 38m
Waning Crescent, 13% of the Moon is Illuminated
Jan 8
Waning Crescent
Jan 11
New
Jan 18
First Quarter
Jan 26
Full
Feb 3
Last Quarter

Hourly Weather History & Observations

Time (CST) Temp. Windchill Dew Point Humidity Pressure Visibility Wind Dir Wind Speed Gust Speed Precip Events Conditions
12:12 AM 28.4 °F 24.6 °F 21.2 °F 74% 29.82 in 10.0 mi WSW 3.5 mph - N/A   Overcast
12:33 AM 28.4 °F 23.3 °F 21.2 °F 74% 29.82 in 10.0 mi SW 4.6 mph - N/A   Overcast
12:53 AM 26.6 °F 22.6 °F 21.2 °F 80% 29.82 in 10.0 mi SSW 3.5 mph - N/A   Overcast
1:12 AM 26.6 °F 22.6 °F 21.2 °F 80% 29.83 in 10.0 mi SW 3.5 mph - N/A   Overcast
1:33 AM 26.6 °F 21.2 °F 21.2 °F 80% 29.83 in 10.0 mi SW 4.6 mph - N/A   Overcast
1:53 AM 28.4 °F 24.6 °F 21.2 °F 74% 29.83 in 10.0 mi West 3.5 mph - N/A   Overcast
2:12 AM 28.4 °F 23.3 °F 21.2 °F 74% 29.84 in 10.0 mi WSW 4.6 mph - N/A   Overcast
2:33 AM 28.4 °F 23.3 °F 21.2 °F 74% 29.85 in 10.0 mi West 4.6 mph - N/A   Overcast
2:53 AM 26.6 °F - 21.2 °F 80% 29.85 in 10.0 mi Calm Calm - N/A   Overcast
3:12 AM 28.4 °F - 21.2 °F 74% 29.85 in 10.0 mi Calm Calm - N/A   Overcast
3:33 AM 28.4 °F - 21.2 °F 74% 29.85 in 10.0 mi Calm Calm - N/A   Overcast
3:53 AM 26.6 °F 20.0 °F 21.2 °F 80% 29.85 in 10.0 mi SW 5.8 mph - N/A   Overcast
4:13 AM 26.6 °F 19.1 °F 21.2 °F 80% 29.85 in 10.0 mi SW 6.9 mph - N/A   Overcast
4:33 AM 26.6 °F 21.2 °F 21.2 °F 80% 29.85 in 10.0 mi SW 4.6 mph - N/A   Overcast
4:53 AM 24.8 °F - 21.2 °F 86% 29.85 in 10.0 mi Calm Calm - N/A   Mostly Cloudy
5:13 AM 24.8 °F 20.5 °F 21.2 °F 86% 29.87 in 10.0 mi South 3.5 mph - N/A   Clear
5:33 AM 23.0 °F 18.4 °F 19.4 °F 86% 29.87 in 10.0 mi SW 3.5 mph - N/A   Clear
5:53 AM 21.2 °F 16.4 °F 19.4 °F 93% 29.87 in 10.0 mi South 3.5 mph - N/A   Clear
6:13 AM 19.4 °F 11.5 °F 17.6 °F 93% 29.87 in 10.0 mi South 5.8 mph - N/A   Clear
6:33 AM 19.4 °F 14.3 °F 17.6 °F 93% 29.88 in 10.0 mi South 3.5 mph - N/A   Clear
6:53 AM 17.6 °F - 15.8 °F 93% 29.88 in 10.0 mi Calm Calm - N/A   Clear
7:13 AM 15.8 °F - 15.8 °F 100% 29.89 in 10.0 mi Calm Calm - N/A   Clear
7:33 AM 15.8 °F - 15.8 °F 100% 29.91 in 10.0 mi Calm Calm - N/A   Clear
7:53 AM 12.2 °F 6.1 °F 10.4 °F 92% 29.91 in 10.0 mi SE 3.5 mph - N/A   Clear
8:13 AM 12.2 °F 4.3 °F 12.2 °F 100% 29.90 in 10.0 mi ESE 4.6 mph - N/A   Clear
8:33 AM 15.8 °F 10.2 °F 12.2 °F 86% 29.88 in 10.0 mi ESE 3.5 mph - N/A   Clear
8:53 AM 14.0 °F 8.2 °F 12.2 °F 93% 29.89 in 10.0 mi SE 3.5 mph - N/A   Clear
9:13 AM 15.8 °F 10.2 °F 14.0 °F 93% 29.89 in 10.0 mi SSE 3.5 mph - N/A   Clear
9:33 AM 17.6 °F 12.3 °F 15.8 °F 93% 29.88 in 10.0 mi SE 3.5 mph - N/A   Clear
9:53 AM 19.4 °F 11.5 °F 17.6 °F 93% 29.90 in 10.0 mi South 5.8 mph - N/A   Clear
10:13 AM 21.2 °F 14.9 °F 19.4 °F 93% 29.90 in 10.0 mi South 4.6 mph - N/A   Clear
10:33 AM 21.2 °F 14.9 °F 19.4 °F 93% 29.89 in 10.0 mi SSE 4.6 mph - N/A   Clear
10:53 AM 24.8 °F 16.9 °F 19.4 °F 80% 29.89 in 10.0 mi South 6.9 mph - N/A   Clear
11:13 AM 26.6 °F 20.0 °F 19.4 °F 74% 29.87 in 10.0 mi South 5.8 mph - N/A   Clear
11:33 AM 28.4 °F 23.3 °F 19.4 °F 69% 29.86 in 10.0 mi SSE 4.6 mph - N/A   Clear
11:53 AM 28.4 °F 22.2 °F 19.4 °F 69% 29.84 in 10.0 mi ESE 5.8 mph - N/A   Clear
12:13 PM 30.2 °F 25.4 °F 19.4 °F 64% 29.84 in 10.0 mi SSE 4.6 mph - N/A   Clear
12:33 PM 30.2 °F - 21.2 °F 69% 29.83 in 10.0 mi Calm Calm - N/A   Clear
12:53 PM 30.2 °F 25.4 °F 21.2 °F 69% 29.81 in 10.0 mi SE 4.6 mph - N/A   Clear
1:13 PM 32.0 °F 27.5 °F 21.2 °F 64% 29.81 in 10.0 mi South 4.6 mph - N/A   Clear
1:33 PM 33.8 °F 28.6 °F 21.2 °F 60% 29.80 in 10.0 mi South 5.8 mph - N/A   Clear
1:53 PM 33.8 °F 28.6 °F 21.2 °F 60% 29.79 in 10.0 mi SSE 5.8 mph - N/A   Scattered Clouds
2:12 PM 33.8 °F 28.6 °F 21.2 °F 60% 29.78 in 10.0 mi SSE 5.8 mph - N/A   Scattered Clouds
2:33 PM 33.8 °F 27.7 °F 21.2 °F 60% 29.77 in 10.0 mi SE 6.9 mph - N/A   Scattered Clouds
2:53 PM 33.8 °F 28.6 °F 21.2 °F 60% 29.76 in 10.0 mi SE 5.8 mph - N/A   Scattered Clouds
3:12 PM 33.8 °F 28.6 °F 21.2 °F 60% 29.74 in 10.0 mi SE 5.8 mph - N/A   Scattered Clouds
3:33 PM 33.8 °F 27.0 °F 21.2 °F 60% 29.73 in 10.0 mi ESE 8.1 mph - N/A   Scattered Clouds
3:53 PM 33.8 °F 27.0 °F 21.2 °F 60% 29.71 in 10.0 mi ESE 8.1 mph - N/A   Mostly Cloudy
4:12 PM 32.0 °F 25.6 °F 21.2 °F 64% 29.70 in 10.0 mi SE 6.9 mph - N/A   Mostly Cloudy
4:33 PM 32.0 °F 23.0 °F 21.2 °F 64% 29.69 in 10.0 mi SE 11.5 mph - N/A   Overcast
4:53 PM 30.2 °F 21.9 °F 21.2 °F 69% 29.68 in 10.0 mi SE 9.2 mph - N/A   Overcast
5:12 PM 30.2 °F 21.9 °F 23.0 °F 75% 29.67 in 10.0 mi SE 9.2 mph - N/A   Overcast
5:33 PM 30.2 °F 21.9 °F 23.0 °F 75% 29.66 in 10.0 mi SE 9.2 mph 12.7 mph N/A   Overcast
5:53 PM 30.2 °F 21.3 °F 23.0 °F 75% 29.65 in 10.0 mi SE 10.4 mph - N/A   Overcast
6:13 PM 30.2 °F 20.8 °F 24.8 °F 80% 29.66 in 10.0 mi SE 11.5 mph - N/A   Overcast
6:33 PM 28.4 °F 19.7 °F 26.6 °F 93% 29.66 in 1.8 mi SSE 9.2 mph - N/A Snow Light Snow
6:53 PM 28.4 °F 19.1 °F 26.6 °F 93% 29.64 in 2.5 mi SSE 10.4 mph - N/A Snow Light Snow
7:13 PM 28.4 °F 19.7 °F 26.6 °F 93% 29.63 in 2.0 mi SSE 9.2 mph - N/A Snow Light Snow
7:33 PM 28.4 °F 21.2 °F 26.6 °F 93% 29.62 in 1.8 mi SSE 6.9 mph - N/A Snow Light Snow
7:53 PM 28.4 °F 23.3 °F 26.6 °F 93% 29.61 in 1.5 mi South 4.6 mph - N/A Snow Light Snow
8:13 PM 28.4 °F 23.3 °F 28.4 °F 100% 29.60 in 1.8 mi South 4.6 mph - N/A Snow Light Snow
8:33 PM 28.4 °F 23.3 °F 28.4 °F 100% 29.60 in 1.2 mi South 4.6 mph - 0.01 in Snow Light Snow
8:53 PM 28.4 °F 22.2 °F 28.4 °F 100% 29.59 in 1.5 mi SSW 5.8 mph - 0.01 in Snow Light Snow
9:13 PM 28.4 °F 20.4 °F 28.4 °F 100% 29.59 in 4.0 mi SSW 8.1 mph - N/A Snow Light Snow
9:33 PM 28.4 °F 19.7 °F 26.6 °F 93% 29.59 in 4.0 mi SW 9.2 mph - N/A Snow Light Snow
9:53 PM 28.4 °F 19.1 °F 26.6 °F 93% 29.59 in 7.0 mi SW 10.4 mph 16.1 mph N/A   Overcast
10:13 PM 28.4 °F 19.1 °F 26.6 °F 93% 29.59 in 7.0 mi SW 10.4 mph 17.3 mph N/A   Mostly Cloudy
10:33 PM 28.4 °F 20.4 °F 26.6 °F 93% 29.59 in 7.0 mi WSW 8.1 mph 18.4 mph N/A   Mostly Cloudy
10:53 PM 28.4 °F 19.1 °F 26.6 °F 93% 29.60 in 7.0 mi WSW 10.4 mph 16.1 mph N/A   Mostly Cloudy
11:13 PM 28.4 °F 19.7 °F 26.6 °F 93% 29.60 in 7.0 mi WSW 9.2 mph - N/A   Mostly Cloudy
11:33 PM 28.4 °F 22.2 °F 26.6 °F 93% 29.59 in 7.0 mi SW 5.8 mph - N/A   Mostly Cloudy
11:53 PM 28.4 °F 21.2 °F 26.6 °F 93% 29.60 in 7.0 mi SW 6.9 mph - N/A   Overcast